Cortland, IL

2:01 PM CST on February 08, 2016 (GMT -0600)
De Kalb Taylor Municipal

Weather History for KDKB - December, 2012

Change the Weather History Date:

Tuesday, December 18, 2012

  Actual Average (KARR) Record (KARR)
Temperature  
Mean Temperature 33 °F 24 °F  
Max Temperature 37 °F 32 °F 56 °F (2002)
Min Temperature 29 °F 17 °F -6 °F (2008)
Degree Days  
Heating Degree Days 32 41  
Month to date heating degree days 686  
Since 1 July heating degree days 2100  
Cooling Degree Days 0 0  
Month to date cooling degree days 0  
Year to date cooling degree days 655  
Moisture  
Dew Point 30 °F    
Average Humidity 88    
Maximum Humidity 93    
Minimum Humidity 85    
Precipitation  
Precipitation 0.03 in 0.06 in 0.48 in (2002)
Month to date precipitation 1.35  
Year to date precipitation 36.25  
Sea Level Pressure  
Sea Level Pressure 29.69 in    
Wind  
Wind Speed 7 mph (SSW)    
Max Wind Speed 16 mph    
Max Gust Speed 22 mph    
Visibility 4 miles    
Events      
T = Trace of Precipitation, MM = Missing Value Source: NWS Daily Summary

Daily Weather History Graph

Daily Weather History Graph

Search for Another Location

Airport or City:

Trip Planner

Search our weather history database for the weather conditions in past years. The results will help you decide how hot, cold, wet, or windy it might be!

Date:

Astronomy

Dec. 18, 2012 Rise Set
Actual Time 7:17 AM CST 4:25 PM CST
Civil Twilight 6:46 AM CST 4:57 PM CST
Nautical Twilight 6:10 AM CST 5:32 PM CST
Astronomical Twilight 5:37 AM CST 6:06 PM CST
Moon 10:52 AM CST (12/18) 10:57 PM CST (12/18)
Length of Visible Light 10h 11m
Length of Day
9h 07m
Waxing Crescent, 35% of the Moon is Illuminated
Dec 18
Waxing Crescent
Dec 19
First Quarter
Dec 28
Full
Jan 4
Last Quarter
Jan 11
New

Hourly Weather History & Observations

Time (CST) Temp. Windchill Dew Point Humidity Pressure Visibility Wind Dir Wind Speed Gust Speed Precip Events Conditions
12:15 AM 31.6 °F - 28.4 °F 88% 29.74 in 5.0 mi Calm Calm - N/A   Overcast
12:35 AM 31.8 °F - 28.4 °F 87% 29.74 in 5.0 mi Calm Calm - N/A   Overcast
12:55 AM 32.0 °F - 28.4 °F 87% 29.74 in 5.0 mi Calm Calm - N/A   Overcast
1:15 AM 32.0 °F - 28.4 °F 87% 29.74 in 4.0 mi Calm Calm - N/A   Overcast
1:35 AM 31.8 °F - 28.4 °F 87% 29.74 in 5.0 mi Calm Calm - N/A   Overcast
1:55 AM 31.8 °F - 28.4 °F 87% 29.74 in 4.0 mi Calm Calm - N/A   Overcast
2:15 AM 32.2 °F 24.4 °F 29.5 °F 90% 29.74 in 5.0 mi SW 9.2 mph - N/A   Overcast
2:35 AM 32.5 °F 25.5 °F 29.3 °F 88% 29.74 in 7.0 mi WSW 8.1 mph - N/A   Overcast
2:55 AM 32.5 °F 27.1 °F 29.1 °F 87% 29.74 in 10.0 mi SW 5.8 mph - N/A   Overcast
3:15 AM 32.2 °F 24.4 °F 28.9 °F 88% 29.74 in 10.0 mi SW 9.2 mph - N/A   Overcast
3:35 AM 32.4 °F 26.9 °F 28.9 °F 87% 29.74 in 10.0 mi SW 5.8 mph - N/A   Overcast
3:55 AM 32.0 °F 26.4 °F 28.2 °F 86% 29.73 in 10.0 mi SW 5.8 mph - N/A   Overcast
4:15 AM 32.0 °F 25.6 °F 28.2 °F 86% 29.74 in 10.0 mi WSW 6.9 mph - N/A   Overcast
4:35 AM 31.8 °F 24.6 °F 27.9 °F 85% 29.73 in 7.0 mi SW 8.1 mph - N/A   Overcast
4:55 AM 31.8 °F 24.6 °F 27.7 °F 85% 29.72 in 7.0 mi SW 8.1 mph - N/A   Overcast
5:15 AM 31.8 °F 24.6 °F 27.9 °F 85% 29.72 in 5.0 mi SW 8.1 mph - N/A   Overcast
5:35 AM 31.6 °F 23.7 °F 27.9 °F 86% 29.74 in 5.0 mi SSW 9.2 mph - N/A   Overcast
5:55 AM 31.6 °F 24.4 °F 27.5 °F 85% 29.74 in 5.0 mi SSW 8.1 mph - N/A   Overcast
6:15 AM 31.5 °F 24.2 °F 27.5 °F 85% 29.75 in 7.0 mi SW 8.1 mph - N/A   Overcast
6:35 AM 31.6 °F 25.1 °F 28.0 °F 87% 29.74 in 5.0 mi SW 6.9 mph - N/A   Overcast
6:55 AM 31.6 °F 25.1 °F 28.2 °F 87% 29.74 in 5.0 mi South 6.9 mph - N/A   Overcast
7:15 AM 31.8 °F 24.6 °F 28.4 °F 87% 29.74 in 4.0 mi South 8.1 mph - N/A   Overcast
7:35 AM 31.8 °F 24.6 °F 28.4 °F 87% 29.74 in 4.0 mi South 8.1 mph - N/A   Overcast
8:15 AM 31.6 °F 23.7 °F 28.8 °F 89% 29.74 in - SSE 9.2 mph - 0.03 in   Overcast
8:35 AM 29.7 °F 21.3 °F 26.4 °F 88% 29.73 in 4.0 mi SE 9.2 mph - 0.03 in   Mostly Cloudy
8:55 AM 30.2 °F 20.8 °F 27.1 °F 88% 29.73 in 3.0 mi SSE 11.5 mph - 0.03 in   Scattered Clouds
9:15 AM 30.2 °F 21.3 °F 27.1 °F 88% 29.73 in 3.0 mi SE 10.4 mph - N/A   Mostly Cloudy
9:35 AM 30.7 °F 21.4 °F 27.5 °F 88% 29.71 in 3.0 mi SE 11.5 mph - N/A   Overcast
9:55 AM 30.2 °F 20.8 °F 27.1 °F 88% 29.72 in 4.0 mi SE 11.5 mph - N/A   Overcast
10:15 AM 30.6 °F 20.2 °F 27.3 °F 88% 29.71 in 3.0 mi SE 13.8 mph - N/A   Overcast
10:35 AM 30.9 °F 21.2 °F 27.7 °F 88% 29.71 in 3.0 mi SE 12.7 mph - N/A   Overcast
10:55 AM 31.1 °F 20.9 °F 28.0 °F 88% 29.69 in 3.0 mi SE 13.8 mph 17.3 mph N/A   Overcast
11:15 AM 31.6 °F 21.2 °F 28.4 °F 88% 29.66 in 3.0 mi SE 15.0 mph 19.6 mph N/A   Overcast
11:35 AM 32.5 °F 21.9 °F 29.8 °F 90% 29.63 in 3.0 mi ESE 16.1 mph - N/A   Overcast
11:55 AM 32.5 °F 21.9 °F 29.8 °F 90% 29.62 in 3.0 mi SE 16.1 mph 21.9 mph N/A   Overcast
12:15 PM 32.9 °F 22.8 °F 30.2 °F 90% 29.62 in 3.0 mi SE 15.0 mph - N/A   Overcast
12:35 PM 33.4 °F 23.1 °F 30.9 °F 90% 29.59 in 2.5 mi SE 16.1 mph 20.7 mph N/A   Overcast
12:55 PM 34.0 °F 24.6 °F 31.5 °F 90% 29.58 in 2.5 mi SE 13.8 mph 21.9 mph N/A   Overcast
1:15 PM 35.1 °F 26.4 °F 32.0 °F 89% 29.58 in 2.5 mi SE 12.7 mph - N/A   Overcast
1:35 PM 35.2 °F 27.1 °F 32.0 °F 88% 29.59 in 3.0 mi SE 11.5 mph 17.3 mph N/A   Overcast
1:55 PM 35.6 °F 27.1 °F 32.2 °F 87% 29.59 in 3.0 mi SSE 12.7 mph 20.7 mph N/A   Overcast
2:35 PM 36.3 °F 28.4 °F 32.9 °F 87% 29.57 in 3.0 mi SE 11.5 mph - N/A   Overcast
2:55 PM 36.5 °F 28.7 °F 32.9 °F 87% 29.57 in 3.0 mi SE 11.5 mph - N/A   Overcast
3:15 PM 36.5 °F 28.7 °F 33.3 °F 88% 29.57 in 3.0 mi SSE 11.5 mph 19.6 mph N/A   Overcast
3:35 PM 36.5 °F 28.2 °F 33.3 °F 88% 29.57 in 3.0 mi SSE 12.7 mph - N/A   Overcast
3:55 PM 36.5 °F 29.7 °F 33.4 °F 89% 29.58 in 3.0 mi SSE 9.2 mph - N/A   Light Drizzle
4:15 PM 36.7 °F 31.2 °F 33.8 °F 89% 29.58 in 3.0 mi SSE 6.9 mph - N/A   Overcast
4:35 PM 36.5 °F 33.9 °F 33.8 °F 90% 29.59 in 4.0 mi SSW 3.5 mph - N/A   Overcast
4:55 PM 37.2 °F 33.6 °F 34.0 °F 88% 29.59 in 4.0 mi SSE 4.6 mph - N/A   Overcast
5:15 PM 36.7 °F 32.0 °F 33.8 °F 89% 29.60 in 4.0 mi SSE 5.8 mph - N/A   Overcast
5:35 PM 36.5 °F - 33.8 °F 90% 29.61 in 3.0 mi Calm Calm - N/A   Overcast
5:55 PM 36.9 °F - 34.2 °F 90% 29.62 in 4.0 mi Calm Calm - N/A   Overcast
6:15 PM 37.0 °F - 34.2 °F 89% 29.63 in 4.0 mi Calm Calm - N/A   Overcast
6:35 PM 37.8 °F 31.3 °F 34.7 °F 89% 29.63 in 5.0 mi West 9.2 mph - N/A   Overcast
6:55 PM 37.8 °F 32.5 °F 34.2 °F 87% 29.64 in 5.0 mi West 6.9 mph - N/A   Overcast
7:15 PM 37.8 °F 32.5 °F 34.2 °F 87% 29.65 in 5.0 mi West 6.9 mph - N/A   Overcast
7:35 PM 37.6 °F 30.5 °F 33.8 °F 86% 29.67 in 7.0 mi West 10.4 mph - N/A   Overcast
7:55 PM 37.6 °F 30.5 °F 33.8 °F 86% 29.67 in 5.0 mi WNW 10.4 mph - N/A   Overcast
8:15 PM 36.9 °F 30.1 °F 33.4 °F 87% 29.69 in 5.0 mi West 9.2 mph - N/A   Overcast
8:35 PM 36.5 °F 28.7 °F 33.3 °F 88% 29.69 in 4.0 mi West 11.5 mph - N/A   Mostly Cloudy
8:55 PM 35.4 °F 26.0 °F 32.5 °F 89% 29.71 in 3.0 mi WNW 15.0 mph - N/A   Overcast
9:15 PM 35.1 °F 25.2 °F 32.4 °F 90% 29.72 in 2.5 mi WNW 16.1 mph 20.7 mph N/A   Overcast
9:35 PM 33.6 °F 24.1 °F 31.5 °F 92% 29.74 in 2.0 mi NW 13.8 mph 21.9 mph N/A   Overcast
9:55 PM 32.9 °F 23.7 °F 30.7 °F 92% 29.75 in 2.5 mi NW 12.7 mph 18.4 mph N/A   Overcast
10:15 PM 32.5 °F 23.2 °F 30.6 °F 92% 29.77 in 2.5 mi NW 12.7 mph - N/A   Overcast
10:35 PM 32.0 °F 22.1 °F 30.2 °F 93% 29.79 in 2.5 mi WNW 13.8 mph 20.7 mph N/A   Overcast
10:55 PM 32.0 °F 22.5 °F 29.8 °F 92% 29.79 in 3.0 mi NW 12.7 mph - N/A   Overcast
11:15 PM 32.0 °F 22.1 °F 29.7 °F 91% 29.81 in 3.0 mi NW 13.8 mph 20.7 mph N/A   Overcast
11:35 PM 31.6 °F 21.2 °F 29.3 °F 91% 29.82 in 3.0 mi NW 15.0 mph 19.6 mph N/A   Overcast
11:55 PM 31.6 °F 22.1 °F 29.1 °F 90% 29.84 in 3.0 mi WNW 12.7 mph 17.3 mph N/A   Overcast